(55) Pandora
ephemeris date magn radius delta ra dec elong phase
Today19 Oct 202513.93.118 AU3.992 AU12h04m+01°19'25.0°7.8°
Opposition10 Apr 202612.13.155 AU2.154 AU13h15m-10°08'177.8°0.7°
(55) Pandora - 2025-10-19
astro.vanbuitenen.nl


 
-1 year
-1 month
-1 day
Now
+1 day
+1 month
+1 year

The interactive orbit chart above shows the body's path through the solar system and its position at the given date. Green and blue lines are shown perpendicular to the ecliptic plane: Green if the path is above the ecliptic plane, blue if it is below. (Left-click and drag to rotate the view; Right-click and drag to move the view; Use scroll wheel to zoom in our out.)

The orbital elements of Pandora are:

            e (Eccentricity)                : 0.1450490
            a (Semimajor axis)              : 2.7581676
            i (Inclination)                 : 7.17603
            Ω (Longitude of ascending node) : 10.28662
            ω (Argument of perihelion)      : 4.99646
            M (Mean anomaly)                : 114.41551
            Epoch                           : 2025 May 05

            L (Longitude of perihelion)     : 15.24414
            B (Latitude of perihelion)      : 0.62337
            P (Orbital period in years)     : 4.58            
        

The light curve chart below shows the estimated development of the minor planet's magnitude.


The all-sky chart below shows the path of the minor planet over the same period as the light curve. The current position is marked yellow.





The following chart shows the path of the minor planet in the next few days. The field of view is optimized for (~10x50) binoculars and finderscopes.




Ephemerides:
Date       Time       RA (2000)    DEC (2000)    delta   radius  elong  phase   PA    magn
2025-10-19 00:00 UT   12 04 49.4   +01 19 04     3.992    3.118   25.0    7.8   297   13.9 
2025-10-19 05:56 UT   12 05 08.1   +01 16 50     3.991    3.118   25.1    7.8   297   13.9 
2025-10-20 00:00 UT   12 06 05.2   +01 10 01     3.986    3.118   25.6    7.9   297   13.9 
2025-10-21 00:00 UT   12 07 20.8   +01 00 60     3.980    3.119   26.3    8.1   297   13.9 
2025-10-22 00:00 UT   12 08 36.2   +00 51 60     3.974    3.119   26.9    8.3   297   13.9 
2025-10-23 00:00 UT   12 09 51.4   +00 43 01     3.968    3.120   27.6    8.5   297   13.9 
2025-10-24 00:00 UT   12 11 06.5   +00 34 03     3.962    3.121   28.2    8.7   296   13.9 
2025-10-25 00:00 UT   12 12 21.4   +00 25 07     3.955    3.121   28.8    8.8   296   13.9 
2025-10-26 00:00 UT   12 13 36.1   +00 16 12     3.948    3.122   29.5    9.0   296   13.9 
2025-10-27 00:00 UT   12 14 50.6   +00 07 18     3.942    3.122   30.2    9.2   296   13.9 
2025-10-28 00:00 UT   12 16 04.9   +00 01 34     3.935    3.123   30.8    9.4   296   13.9 
2025-10-29 00:00 UT   12 17 19.0   +00 10 24     3.927    3.123   31.5    9.6   296   13.9 
2025-10-30 00:00 UT   12 18 32.8   +00 19 13     3.920    3.124   32.1    9.7   296   13.9 
2025-10-31 00:00 UT   12 19 46.5   +00 27 60     3.913    3.124   32.8    9.9   296   13.9 
2025-11-01 00:00 UT   12 20 60.0   +00 36 45     3.905    3.125   33.4   10.1   296   13.9 
2025-11-02 00:00 UT   12 22 13.2   +00 45 29     3.897    3.125   34.1   10.3   296   13.9 
2025-11-03 00:00 UT   12 23 26.2   +00 54 11     3.889    3.126   34.8   10.4   295   13.9 
2025-11-04 00:00 UT   12 24 39.0   -01 02 52     3.881    3.127   35.4   10.6   295   13.9 
2025-11-05 00:00 UT   12 25 51.5   -01 11 30     3.873    3.127   36.1   10.8   295   13.9 
2025-11-06 00:00 UT   12 27 03.9   -01 20 07     3.865    3.128   36.8   10.9   295   13.9 
2025-11-07 00:00 UT   12 28 16.0   -01 28 42     3.857    3.128   37.4   11.1   295   13.9 
2025-11-08 00:00 UT   12 29 27.8   -01 37 15     3.848    3.129   38.1   11.3   295   13.9 
2025-11-09 00:00 UT   12 30 39.4   -01 45 46     3.839    3.129   38.8   11.4   295   13.9 
2025-11-10 00:00 UT   12 31 50.7   -01 54 16     3.830    3.130   39.4   11.6   295   13.9 
2025-11-11 00:00 UT   12 33 01.8   -02 02 43     3.822    3.130   40.1   11.8   295   13.9 
2025-11-12 00:00 UT   12 34 12.7   -02 11 08     3.812    3.131   40.8   11.9   295   13.9 
2025-11-13 00:00 UT   12 35 23.2   -02 19 31     3.803    3.131   41.5   12.1   295   13.9 


    Terminology:
            
    delta:  distance between minor planet and earth in AU
    radius: distance between minor planet and sun in AU
    magn:   magnitude (brightness) estimate    
    ra:     right ascension in hours (24h = 360deg)
    dec:    declination in degrees
    elong:  elongation in degrees (angle sun-earth-minor planet)    
    phase:  phase angle in degrees (angle sun-minor planet-earth)        
    AU:     Astronomical Unit (mean distance between earth and sun: 149597870.7 km
    

Orbital elements provided by the MPC (Minor Planet Center).
Calculations by a modified version of AAPlus, a C# implementation of the AA+ project by PJ Naughter from the algorithms presented in the book "Astronomical Algorithms" by Jean Meeus.
NGC2000 dso catalog and star labels from VizieR as provided by the Strasbourg astronomical Data Center.
Tycho2 catalog from the ESO archive.